This demonstration page uses our WeatherBlox Daily Observations layout. Learn more.

Left ArrowRight Arrow

Hourly Observations for December 4, 2020

Temp ( °F °C ) Dew Point ( °F °C ) Humidity (%) Winds ( mph kmh ) Pressure ( in mb ) Visibility ( mi km ) Precip ( " mm )
12:54 am 00:54 Clear 23 -5 16 -8.9 74 74 SSW 3 6 30.11 1020 10 16.0934 0 0
1:54 am 01:54 Clear 27 -2.8 17 -8.3 66 66 Calm 30.1 1019 10 16.0934 0 0
2:54 am 02:54 Clear 29 -1.7 18 -7.8 63 63 W 5 7 30.09 1019 10 16.0934 0 0
3:54 am 03:54 Clear 26 -3.3 17 -8.3 69 69 Calm 30.08 1019 10 16.0934 0 0
4:54 am 04:54 Clear 26 -3.3 16 -8.9 66 66 WNW 3 6 30.08 1019 10 16.0934 0 0
5:54 am 05:54 Clear 24 -4.4 16 -8.9 71 71 Calm 30.09 1019 10 16.0934 0 0
6:54 am 06:54 Clear 24 -4.4 16 -8.9 71 71 Calm 30.09 1019 10 16.0934 0 0
7:54 am 07:54 Sunny 26 -3.3 17 -8.3 69 69 Calm 30.1 1019 10 16.0934 0 0
8:54 am 08:54 Sunny 33 0.6 22 -5.6 64 64 Calm 30.11 1020 10 16.0934 0 0
9:54 am 09:54 Sunny 40 4.4 24 -4.4 53 53 NNW 7 11 30.12 1020 10 16.0934 0 0
10:54 am 10:54 Sunny 45 7.2 24 -4.4 44 44 NW 7 11 30.13 1020 10 16.0934 0 0
11:54 am 11:54 Sunny 49 9.4 26 -3.3 41 41 NNW 6 9 30.1 1019 10 16.0934 0 0
12:54 pm 12:54 Sunny 53 11.7 27 -2.8 37 37 NW 8 13 30.09 1019 10 16.0934 0 0
1:54 pm 13:54 Sunny 56 13.3 28 -2.2 34 34 NW 9 15 30.06 1018 10 16.0934 0 0
2:54 pm 14:54 Sunny 57 13.9 28 -2.2 33 33 WNW 13 20 30.06 1018 10 16.0934 0 0
3:54 pm 15:54 Sunny 57 13.9 28 -2.2 33 33 WNW 6 9 30.07 1018 10 16.0934 0 0
4:54 pm 16:54 Sunny 53 11.7 28 -2.2 38 38 W 6 9 30.08 1019 10 16.0934 0 0
5:54 pm 17:54 Clear 40 4.4 25 -3.9 55 55 Calm 30.1 1019 10 16.0934 0 0
6:54 pm 18:54 Clear 39 3.9 25 -3.9 57 57 Calm 30.11 1020 10 16.0934 0 0
7:54 pm 19:54 Clear 39 3.9 25 -3.9 57 57 SW 3 6 30.11 1020 10 16.0934 0 0
8:54 pm 20:54 Clear 36 2.2 24 -4.4 62 62 Calm 30.12 1020 10 16.0934 0 0
9:54 pm 21:54 Clear 30 -1.1 22 -5.6 72 72 Calm 30.13 1020 10 16.0934 0 0
10:54 pm 22:54 Clear 30 -1.1 22 -5.6 72 72 Calm 30.13 1020 10 16.0934 0 0
11:54 pm 23:54 Clear 25 -3.9 19 -7.2 78 78 Calm 30.15 1021 10 16.0934 0 0

Powered by AerisWeather